14 Jan
2008
14 Jan
'08
9:29 a.m.
ISS 1 25544U 98067A 08014.55600694 .00024594 00000-0 15177-3 0 7129 2 25544 051.6383 093.7755 0005484 280.0502 284.2730 15.76984221524127
6186
Age (days ago)
6186
Last active (days ago)
0 comments
1 participants
participants (1)
-
Dave Larsen PhD